Date,TemperatureHighF,TemperatureAvgF,TemperatureLowF,DewpointHighF,DewpointAvgF,DewpointLowF,HumidityHigh,HumidityAvg,HumidityLow,PressureMaxIn,PressureMinIn,WindSpeedMaxMPH,WindSpeedAvgMPH,GustSpeedMaxMPH,PrecipitationSumIn
2014-2-1,60,52,41,57,43,32,99,73,51,0.00,40.00,0,-999,0,0.00
2014-2-2,43,31,27,31,27,24,99,87,58,0.00,40.00,0,-999,0,0.09
2014-2-4,61,43,35,43,38,32,100,83,35,0.00,40.00,0,-999,0,0.04
2014-2-5,37,25,20,33,18,13,84,74,63,0.00,40.00,0,-999,0,0.01
2014-2-6,19,17,14,12,10,8,79,74,70,0.00,40.00,0,-999,0,0.00
2014-2-7,29,23,18,28,19,12,99,84,77,0.00,40.00,0,-999,0,0.00
2014-2-8,71,46,27,39,30,25,99,64,20,0.00,40.00,0,-999,0,0.00
2014-2-9,77,51,39,37,32,26,94,53,16,0.00,40.00,0,-999,0,0.00
2014-2-10,38,29,24,38,29,24,99,99,99,0.00,40.00,0,-999,0,0.00
2014-2-11,25,24,24,25,24,23,99,99,99,0.00,40.00,0,-999,0,0.00
2014-2-12,53,45,34,33,32,31,88,62,44,0.00,40.00,0,-999,0,0.00
2014-2-13,73,49,28,35,30,27,96,58,18,0.00,40.00,0,-999,0,0.00
2014-2-14,70,58,43,35,27,22,63,34,20,0.00,40.00,0,-999,0,0.00
2014-2-15,79,59,38,34,28,22,53,33,18,0.00,40.00,0,-999,0,0.00
2014-2-16,81,60,43,56,45,-100,85,65,39,0.00,40.00,0,-999,0,0.00
2014-2-17,72,61,50,55,32,8,100,49,9,0.00,40.00,0,-999,0,0.00
2014-2-18,80,61,43,57,40,19,91,48,27,0.00,40.00,0,-999,0,0.00
2014-2-19,82,63,50,64,57,50,100,83,40,0.00,40.00,0,-999,0,0.00
2014-2-20,70,60,45,61,35,-100,100,57,13,0.00,40.00,0,-999,0,0.00
2014-2-21,67,50,30,26,20,16,65,36,14,0.00,40.00,0,-999,0,0.00
2014-2-22,83,59,42,50,34,22,63,42,12,0.00,40.00,0,-999,0,0.00
2014-2-23,63,55,50,57,41,32,99,63,32,0.00,40.00,0,-999,0,0.00
2014-2-24,69,57,44,53,45,33,81,65,54,0.00,40.00,0,-999,0,0.00
2014-2-25,54,47,41,49,45,36,100,93,79,0.00,40.00,0,-999,0,0.00
2014-2-26,41,34,27,34,19,14,81,54,34,0.00,40.00,0,-999,0,0.01
2014-2-27,60,40,23,31,20,14,71,48,30,0.00,40.00,0,-999,0,0.00
2014-2-28,83,54,39,38,29,12,88,61,7,0.00,40.00,0,-999,0,0.00